Regional Weather Roundup
Issued by NWS Midland/Odessa, TX

Skip options and go directly to product.
Home | Oldest Version | Previous Version | Current Version | All | Graphics & Text | Save Text | Print | Product List | Glossary On

Skip product version selection by date and time.   
367
ASUS44 KMAF 021110
RWRMAF
MIDLAND AREA WEATHER ROUNDUP
NATIONAL WEATHER SERVICE MIDLAND TX
500 AM CST MON MAR 02 2015

...IN SOUTHWEST TEXAS AND SOUTHEAST NEW MEXICO...

CITY           SKY/WX    TMP DP  RH WIND       PRES   REMARKS
ALPINE         CLOUDY    35  35  99 NE7       30.28S VSB 1/2 WCI  29
ANDREWS        CLOUDY    31  31 100 NE7       30.31R FOG     WCI  24
ARTESIA        CLOUDY    32  32 100 S13       30.28S FOG     WCI  22
BIG SPRING     CLOUDY    33  32  94 NE9       30.33F WCI  26
CARLSBAD       CLOUDY    34  31  88 E6        30.27F FOG     WCI  29
DRYDEN           N/A     39  38  96 NE8       30.25S WCI  33
FORT STOCKTON  FOG       33  33 100 NE5       30.29S VSB 1/4 WCI  29
GUAD PASS      NOT AVBL
HOBBS          FOG       30  30 100 NE7       30.29S VSB 1/2 WCI  23
MARFA          CLOUDY    39  36  87 NE8       30.18S WCI  34
MIDLAND AIRPK  CLOUDY    33  33 100 NE7       30.32S FOG     WCI  26
MIDLAND INTL   CLOUDY    32  31  96 NE12      30.30S FOG     WCI  23
ODESSA         CLOUDY    31  29  92 NE12      30.30S FOG     WCI  22
PECOS          CLOUDY    34  33  96 NE8       30.31F FOG     WCI  27
PRESIDIO       FAIR      50  40  69 NE12G18   30.12S
SEMINOLE       CLOUDY    31  31 100 NE6       30.31F FOG     WCI  25
SNYDER         CLOUDY    30  29  98 NE6       30.34F FOG     WCI  24
WINK           CLOUDY    34  30  85 NE13      30.28F WCI  25
$$
...OTHER STATIONS IN TEXAS...

CITY           SKY/WX    TMP DP  RH WIND       PRES   REMARKS
ABILENE        CLOUDY    31  29  92 N12       30.36S FOG     WCI  22
AMARILLO       CLOUDY    28  25  88 E5        30.29F FOG     WCI  23
AUSTIN         LGT RAIN  38  38 100 N9        30.31R FOG     WCI  31
BROWNSVILLE    CLOUDY    54  53  97 N7        30.19S FOG
CORPUS CHRISTI LGT RAIN  48  46  93 N12       30.23S FOG
DALLAS FTW     CLOUDY    34  32  92 N14       30.35F WCI  25
DEL RIO        CLOUDY    44  43  96 NW5       30.26S FOG
EL PASO        CLOUDY    56  31  38 VRB3      30.04F
HOUSTON INT    FOG       48  47  96 NW6       30.26R VSB 1/4
LUBBOCK        FOG       28  27  96 E9        30.30S VSB 1   WCI  19
SAN ANGELO     CLOUDY    34  33  96 NE8       30.32F WCI  27
SAN ANTONIO    CLOUDY    42  39  89 N13       30.27S WCI  35
WACO           LGT RAIN  36  35  96 N12       30.34S FOG     WCI  28
WICHITA FALLS  NOT AVBL
$$
...OTHER LOCATIONS IN NEW MEXICO...

CITY           SKY/WX    TMP DP  RH WIND       PRES   REMARKS
ALAMAGORDO     MOCLDY    48  32  53 N6        30.06F
ALBUQUERQUE    CLOUDY    37  31  78 N12       30.07F WCI  29
CANNON AFB     FRZ DRZL  28  28  99 SE8       30.24F VSB 1/2 WCI  20
CLOVIS         CLOUDY    28  27  93 E9        30.24F WCI  20
HOLLOMAN AFB   MOCLDY    49  33  52 S12       30.04F
ROSWELL        CLOUDY    33  32  96 SE8       30.26F FOG     WCI  26
RUIDOSO        FOG       32  32 100 SE6       30.18F VSB<1/4 WCI  26
SANTA FE       MOCLDY    29  23  78 SE14G23   30.12F WCI  18
TRUTH OR CONSE CLOUDY    55  26  32 S3        30.03F
TUCUMCARI      CLOUDY    29  27  92 E7        30.23F FOG     WCI  22
$$

USA.gov is the U.S. government's official web portal to all federal, state and local government web resources and services.